FW0824 Weather Reports


time (UTC)temp
C
wind
direction
speed
KPH
gust
KPH
rain 1hr
cm
rain 24hr
cm
rain mn
cm
humidity
%
barometer
mb
20220925043708 13 31 0.0 4.8 0.00 0.00 0.00 84 1011.5
20220925043208 13 77 0.0 3.2 0.00 0.00 0.00 84 1011.6
20220925042208 13 90 1.6 4.8 0.00 0.00 0.00 84 1011.6
20220925041208 13 42 1.6 4.8 0.00 0.03 0.00 84 1011.5
20220925040707 13 240 1.6 6.4 0.00 0.03 0.00 84 1011.6
20220925040209 13 37 1.6 6.4 0.00 0.03 0.00 83 1011.6
20220925035207 13 243 0.0 6.4 0.00 0.03 0.00 83 1011.7
20220925034207 13 38 0.0 8.0 0.00 0.03 0.00 83 1011.7
20220925033707 14 288 0.0 4.8 0.00 0.03 0.00 83 1011.7
20220925033209 14 355 0.0 4.8 0.00 0.05 0.00 83 1011.8
20220925032709 14 13 1.6 4.8 0.00 0.05 0.00 82 1011.6
20220925032204 14 5 1.6 6.4 0.00 0.05 0.00 82 1011.7
20220925031703 14 265 1.6 6.4 0.00 0.05 0.00 82 1011.6
20220925031202 14 351 1.6 4.8 0.00 0.05 0.00 82 1011.7
20220925025701 14 276 3.2 11.3 0.00 0.05 0.00 82 1011.6
20220925025200 14 5 1.6 11.3 0.00 0.05 0.00 83 1011.6
20220925024701 14 355 1.6 8.0 0.00 0.05 0.00 83 1011.7
20220925024201 14 355 1.6 12.9 0.00 0.05 0.00 83 1011.7
20220925023701 14 310 3.2 12.9 0.00 0.05 0.00 83 1011.6
20220925022201 14 10 3.2 8.0 0.00 0.05 0.00 83 1011.7
20220925021701 14 355 3.2 8.0 0.00 0.05 0.00 83 1011.7
20220925021201 14 5 3.2 11.3 0.00 0.05 0.00 83 1011.7
20220925020701 14 346 3.2 11.3 0.00 0.05 0.00 84 1011.6
20220925015201 14 234 3.2 12.9 0.00 0.05 0.00 84 1011.5
20220925012202 13 27 1.6 11.3 0.00 0.05 0.00 87 1011.2
20220925011702 13 26 3.2 11.3 0.00 0.05 0.00 87 1011.1
20220925011201 13 269 1.6 8.0 0.00 0.05 0.00 87 1011.0
20220925010701 13 5 1.6 8.0 0.00 0.05 0.00 88 1011.1
20220925010200 13 304 1.6 8.0 0.00 0.05 0.00 88 1011.1
20220925005701 13 5 1.6 8.0 0.00 0.05 0.00 88 1011.0
20220925005201 13 351 1.6 8.0 0.00 0.05 0.00 88 1011.0
20220925004701 13 15 1.6 8.0 0.00 0.05 0.00 88 1010.9
20220925004200 13 288 1.6 6.4 0.00 0.05 0.00 88 1010.9
20220925003700 13 258 1.6 6.4 0.00 0.05 0.00 88 1011.0
20220925002701 13 339 1.6 11.3 0.00 0.08 0.00 88 1010.9
20220925000701 13 294 1.6 8.0 0.00 0.08 0.00 88 1010.8
20220925000203 14 245 1.6 8.0 0.00 0.08 0.00 88 1010.6
20220924235701 14 14 1.6 8.0 0.00 0.08 0.08 87 1010.6
20220924235201 14 17 1.6 6.4 0.00 0.08 0.08 87 1010.5
20220924234201 14 0 0.0 8.0 0.00 0.08 0.08 86 1010.6
20220924233700 14 321 0.0 6.4 0.00 0.08 0.08 86 1010.5
20220924233202 14 316 0.0 6.4 0.00 0.08 0.08 86 1010.4
20220924232701 14 213 0.0 6.4 0.00 0.08 0.08 85 1010.4
20220924232201 15 5 0.0 4.8 0.00 0.08 0.08 85 1010.4
20220924231701 15 228 0.0 14.5 0.00 0.08 0.08 84 1010.4
20220924230201 15 345 1.6 12.9 0.00 0.08 0.08 82 1010.2
20220924225701 15 5 0.0 11.3 0.00 0.08 0.08 82 1010.2
20220924225200 15 335 0.0 11.3 0.00 0.08 0.08 82 1010.2
20220924224701 15 24 1.6 11.3 0.00 0.08 0.08 82 1010.2
20220924224201 15 54 0.0 14.5 0.00 0.08 0.08 82 1010.2
20220924222701 15 112 0.0 6.4 0.00 0.08 0.08 82 1009.9
20220924222200 15 168 0.0 8.0 0.00 0.08 0.08 82 1009.9
20220924220702 15 44 0.0 11.3 0.00 0.08 0.08 81 1009.9
20220924213200 15 207 3.2 19.3 0.00 0.08 0.08 79 1009.6
20220924212700 16 259 3.2 19.3 0.00 0.08 0.08 78 1009.6
20220924212200 16 242 3.2 17.7 0.00 0.10 0.08 78 1009.6
20220924211701 16 267 1.6 17.7 0.00 0.10 0.08 76 1009.6
20220924211201 16 235 1.6 19.3 0.00 0.10 0.08 75 1009.5
20220924210200 17 231 0.0 16.1 0.00 0.10 0.08 73 1009.3
20220924203200 18 5 1.6 17.7 0.00 0.13 0.08 72 1009.2
20220924202202 18 219 0.0 6.4 0.00 0.13 0.08 73 1009.0
20220924201700 18 347 0.0 4.8 0.00 0.13 0.08 73 1008.9
20220924201202 18 349 0.0 9.7 0.00 0.13 0.08 73 1008.8
20220924200201 18 221 0.0 3.2 0.00 0.13 0.08 72 1008.6
20220924195700 19 222 0.0 0.0 0.00 0.13 0.08 72 1008.6
20220924194201 19 222 0.0 0.0 0.00 0.13 0.08 72 1008.7
20220924193701 19 222 0.0 0.0 0.00 0.13 0.08 71 1008.7
20220924193200 19 221 0.0 3.2 0.00 0.13 0.08 72 1008.8
20220924192700 18 221 0.0 3.2 0.00 0.13 0.08 72 1008.8
20220924192200 18 238 0.0 0.0 0.00 0.13 0.08 72 1008.9
20220924191202 18 239 0.0 0.0 0.00 0.13 0.08 72 1008.9
20220924190702 18 239 0.0 0.0 0.00 0.13 0.08 72 1008.9
20220924190201 18 239 0.0 0.0 0.00 0.13 0.08 73 1008.9
20220924185700 18 239 0.0 0.0 0.00 0.13 0.08 73 1009.0
20220924185201 18 239 0.0 3.2 0.00 0.13 0.08 73 1009.0
20220924184202 18 240 0.0 0.0 0.00 0.13 0.08 73 1009.2
20220924183700 18 240 0.0 3.2 0.00 0.13 0.08 72 1009.2
20220924183201 18 240 0.0 4.8 0.00 0.13 0.08 72 1009.5
20220924182702 18 239 0.0 4.8 0.00 0.13 0.08 71 1009.5
20220924181702 18 230 0.0 8.0 0.00 0.13 0.08 71 1009.6
20220924181201 18 217 1.6 8.0 0.00 0.13 0.08 72 1009.6
20220924180201 18 180 0.0 6.4 0.00 0.13 0.08 72 1009.6
20220924175202 18 243 0.0 8.0 0.00 0.13 0.08 70 1009.5
20220924174201 18 262 1.6 9.7 0.00 0.13 0.08 72 1009.5
20220924173702 18 155 1.6 11.3 0.00 0.13 0.08 70 1009.6
20220924173202 18 216 0.0 11.3 0.00 0.13 0.08 70 1009.7
20220924172700 18 240 0.0 6.4 0.00 0.13 0.08 71 1009.7
20220924172201 18 286 1.6 9.7 0.00 0.13 0.08 73 1009.6
20220924171702 18 190 1.6 9.7 0.00 0.13 0.08 74 1009.8
20220924171201 18 150 1.6 11.3 0.00 0.13 0.08 74 1009.9
20220924170700 18 197 1.6 11.3 0.00 0.13 0.08 75 1010.1
20220924170202 17 207 1.6 11.3 0.00 0.13 0.08 77 1010.1
20220924165702 17 225 1.6 11.3 0.00 0.13 0.08 76 1010.3
20220924164156 17 276 1.6 16.1 0.00 0.15 0.08 79 1010.4
20220924163656 17 165 1.6 16.1 0.00 0.15 0.08 79 1010.4
20220924162656 16 209 0.0 8.0 0.00 0.15 0.08 81 1010.4
20220924162158 16 254 1.6 11.3 0.00 0.15 0.08 82 1010.5
20220924161658 16 234 3.2 14.5 0.00 0.15 0.08 82 1010.5
20220924160656 16 236 1.6 8.0 0.00 0.18 0.08 84 1010.4
20220924155652 15 182 1.6 11.3 0.00 0.20 0.08 87 1010.4
20220924155156 15 234 0.0 3.2 0.00 0.20 0.08 89 1010.5
20220924154153 15 219 0.0 0.0 0.00 0.23 0.08 89 1010.4
20220924153652 14 232 0.0 0.0 0.00 0.23 0.08 90 1010.3
20220924153152 14 221 0.0 0.0 0.00 0.23 0.08 90 1010.5
20220924150136 13 224 0.0 0.0 0.00 0.23 0.08 92 1010.5
20220924145638 13 208 0.0 0.0 0.00 0.25 0.08 92 1010.5
20220924145136 13 166 0.0 0.0 0.00 0.25 0.08 93 1010.6
20220924144636 13 146 0.0 0.0 0.00 0.25 0.08 93 1010.6
20220924144136 13 150 0.0 0.0 0.00 0.25 0.08 93 1010.6
20220924143136 13 185 0.0 0.0 0.00 0.25 0.08 93 1010.6
20220924142637 13 207 0.0 0.0 0.00 0.25 0.08 93 1010.5
20220924142134 13 200 0.0 0.0 0.00 0.25 0.08 93 1010.6
20220924140129 13 170 0.0 0.0 0.00 0.25 0.08 93 1010.5
20220924135628 13 170 0.0 0.0 0.00 0.25 0.08 93 1010.5
20220924133630 12 161 0.0 0.0 0.00 0.25 0.08 93 1010.6
20220924133129 12 158 0.0 0.0 0.00 0.25 0.08 93 1010.6
20220924132623 12 159 0.0 0.0 0.00 0.25 0.08 93 1010.7
20220924131104 12 159 0.0 0.0 0.00 0.25 0.08 93 1010.7
20220924125604 12 159 0.0 0.0 0.00 0.25 0.08 93 1010.7
20220924124605 12 159 0.0 0.0 0.00 0.25 0.08 93 1010.7
20220924123604 12 159 0.0 0.0 0.00 0.25 0.08 93 1010.6
20220924123102 12 159 0.0 0.0 0.00 0.25 0.08 93 1010.7
20220924121102 12 159 0.0 0.0 0.00 0.25 0.08 93 1010.7
20220924120102 12 159 0.0 0.0 0.00 0.25 0.08 93 1010.8
20220924115601 12 159 0.0 0.0 0.00 0.25 0.08 93 1010.8
20220924115101 12 159 0.0 0.0 0.00 0.25 0.08 93 1010.8
20220924113101 12 150 0.0 0.0 0.00 0.25 0.08 93 1010.8
20220924112601 12 150 0.0 0.0 0.00 0.25 0.08 93 1010.7
20220924111601 12 150 0.0 0.0 0.00 0.25 0.08 93 1010.8
20220924110101 12 148 0.0 0.0 0.00 0.25 0.08 93 1011.0
20220924105101 12 150 0.0 0.0 0.00 0.25 0.08 93 1011.0
20220924104602 12 150 0.0 0.0 0.00 0.25 0.08 93 1010.9
20220924103602 12 150 0.0 0.0 0.00 0.25 0.08 93 1010.8
20220924103107 12 157 0.0 0.0 0.00 0.25 0.08 93 1010.9
20220924102607 12 165 0.0 0.0 0.00 0.25 0.08 93 1010.9
20220924102105 12 166 0.0 0.0 0.00 0.25 0.08 93 1011.0
20220924101606 12 166 0.0 0.0 0.00 0.25 0.08 93 1010.9
20220924100548 12 166 0.0 0.0 0.00 0.25 0.08 93 1010.9
20220924095543 12 171 0.0 0.0 0.00 0.25 0.08 93 1010.9
20220924095038 12 171 0.0 0.0 0.00 0.25 0.08 93 1010.9
20220924093532 12 165 0.0 0.0 0.00 0.25 0.08 93 1010.8
20220924093032 12 157 0.0 0.0 0.00 0.25 0.08 93 1010.8
20220924092531 12 153 0.0 0.0 0.00 0.25 0.08 93 1010.9
20220924092032 12 178 0.0 0.0 0.00 0.25 0.08 93 1010.9
20220924091532 12 168 0.0 0.0 0.00 0.25 0.08 93 1010.9
20220924091034 12 176 0.0 0.0 0.00 0.25 0.08 93 1010.9
20220924090530 12 180 0.0 0.0 0.00 0.25 0.08 93 1010.9
20220924090038 12 178 0.0 0.0 0.00 0.25 0.08 93 1010.9
20220924085028 12 180 0.0 0.0 0.00 0.25 0.08 93 1011.0
20220924084530 12 189 0.0 0.0 0.00 0.25 0.08 93 1010.9
20220924084039 12 190 0.0 0.0 0.00 0.25 0.08 93 1010.9
20220924083028 12 191 0.0 0.0 0.00 0.25 0.08 93 1010.9
20220924082025 11 184 0.0 0.0 0.00 0.25 0.08 93 1011.0
20220924081516 11 177 0.0 0.0 0.00 0.25 0.08 93 1011.1
20220924081012 11 175 0.0 0.0 0.00 0.25 0.08 93 1011.2
20220924080513 11 157 0.0 0.0 0.00 0.25 0.08 93 1011.3
20220924080020 11 178 0.0 0.0 0.00 0.25 0.08 93 1011.3
20220924075511 11 165 0.0 0.0 0.00 0.25 0.08 93 1011.4
20220924074511 11 171 0.0 0.0 0.00 0.25 0.08 93 1011.4
20220924074010 11 170 0.0 0.0 0.00 0.25 0.08 93 1011.4
20220924073010 11 186 0.0 0.0 0.00 0.25 0.08 93 1011.5
20220924072509 11 208 0.0 0.0 0.00 0.25 0.08 93 1011.5
20220924071009 11 188 0.0 0.0 0.00 0.25 0.08 93 1011.7
20220924070510 11 165 0.0 0.0 0.00 0.25 0.08 93 1011.7
20220924070009 11 190 0.0 3.2 0.00 0.25 0.08 93 1011.8
20220924065510 11 186 1.6 9.7 0.00 0.25 0.08 93 1011.8
20220924065007 11 232 3.2 9.7 0.00 0.25 0.08 93 1011.8
20220924064507 11 176 1.6 8.0 0.00 0.25 0.08 93 1011.7
20220924063503 11 167 0.0 0.0 0.00 0.25 0.08 93 1011.8
20220924063003 11 190 1.6 9.7 0.00 0.25 0.08 93 1011.7
20220924062504 11 164 4.8 17.7 0.00 0.25 0.08 93 1011.7
20220924062004 11 189 4.8 17.7 0.00 0.25 0.08 93 1011.9
20220924061503 11 198 3.2 9.7 0.00 0.25 0.08 93 1011.9
20220924060004 11 212 0.0 0.0 0.00 0.25 0.08 93 1012.1
20220924055503 11 146 0.0 0.0 0.00 0.25 0.08 93 1012.1
20220924054501 11 150 0.0 0.0 0.00 0.25 0.08 93 1012.3
20220924054002 11 138 0.0 0.0 0.00 0.25 0.08 93 1012.4
20220924053002 11 219 0.0 0.0 0.00 0.25 0.08 93 1012.5
20220924052002 11 154 0.0 0.0 0.00 0.25 0.08 93 1012.7
20220924051002 11 186 0.0 0.0 0.03 0.25 0.08 93 1012.8
20220924050502 11 174 0.0 0.0 0.03 0.25 0.08 93 1012.8
20220924045501 11 158 0.0 0.0 0.03 0.25 0.08 92 1012.8
20220924044502 11 150 0.0 0.0 0.03 0.25 0.08 92 1012.9